TIME, SPID DISTINCT USER LAST 24h
"Tue, 15 Mar 2016 00:00:00 +0100",29
"Wed, 16 Mar 2016 00:00:00 +0100",33
"Thu, 17 Mar 2016 00:00:00 +0100",29
"Fri, 18 Mar 2016 00:00:00 +0100",25
"Sat, 19 Mar 2016 00:00:00 +0100",8
"Sun, 20 Mar 2016 00:00:00 +0100",8
"Mon, 21 Mar 2016 00:00:00 +0100",25
"Tue, 22 Mar 2016 00:00:00 +0100",23
"Wed, 23 Mar 2016 00:00:00 +0100",20
"Thu, 24 Mar 2016 00:00:00 +0100",19
"Fri, 25 Mar 2016 00:00:00 +0100",17
"Sat, 26 Mar 2016 00:00:00 +0100",7
"Sun, 27 Mar 2016 00:00:00 +0100",4
"Mon, 28 Mar 2016 00:00:00 +0200",3
"Tue, 29 Mar 2016 00:00:00 +0200",17
"Wed, 30 Mar 2016 00:00:00 +0200",27
"Thu, 31 Mar 2016 00:00:00 +0200",26
"Fri, 01 Apr 2016 00:00:00 +0200",20
"Sat, 02 Apr 2016 00:00:00 +0200",11
"Sun, 03 Apr 2016 00:00:00 +0200",3
"Mon, 04 Apr 2016 00:00:00 +0200",12
"Tue, 05 Apr 2016 00:00:00 +0200",18
"Wed, 06 Apr 2016 00:00:00 +0200",28
"Thu, 07 Apr 2016 00:00:00 +0200",22
"Fri, 08 Apr 2016 00:00:00 +0200",16
"Sat, 09 Apr 2016 00:00:00 +0200",8
"Sun, 10 Apr 2016 00:00:00 +0200",3
"Mon, 11 Apr 2016 00:00:00 +0200",21
"Tue, 12 Apr 2016 00:00:00 +0200",16
"Wed, 13 Apr 2016 00:00:00 +0200",18
"Thu, 14 Apr 2016 00:00:00 +0200",14
"Fri, 15 Apr 2016 00:00:00 +0200",15
"Sat, 16 Apr 2016 00:00:00 +0200",9
"Sun, 17 Apr 2016 00:00:00 +0200",6
"Mon, 18 Apr 2016 00:00:00 +0200",15
"Tue, 19 Apr 2016 00:00:00 +0200",15
"Wed, 20 Apr 2016 00:00:00 +0200",12
"Thu, 21 Apr 2016 00:00:00 +0200",13
"Fri, 22 Apr 2016 00:00:00 +0200",16
"Sat, 23 Apr 2016 00:00:00 +0200",4
"Sun, 24 Apr 2016 00:00:00 +0200",4
"Mon, 25 Apr 2016 00:00:00 +0200",2
"Tue, 26 Apr 2016 00:00:00 +0200",16
"Wed, 27 Apr 2016 00:00:00 +0200",23
"Thu, 28 Apr 2016 00:00:00 +0200",9
"Fri, 29 Apr 2016 00:00:00 +0200",17
"Sat, 30 Apr 2016 00:00:00 +0200",10
"Sun, 01 May 2016 00:00:00 +0200",10
"Mon, 02 May 2016 00:00:00 +0200",22
"Tue, 03 May 2016 00:00:00 +0200",24
"Wed, 04 May 2016 00:00:00 +0200",25
"Thu, 05 May 2016 00:00:00 +0200",25
"Fri, 06 May 2016 00:00:00 +0200",14
"Sat, 07 May 2016 00:00:00 +0200",3
"Sun, 08 May 2016 00:00:00 +0200",8
"Mon, 09 May 2016 00:00:00 +0200",18
"Tue, 10 May 2016 00:00:00 +0200",24
"Wed, 11 May 2016 00:00:00 +0200",31
"Thu, 12 May 2016 00:00:00 +0200",18
"Fri, 13 May 2016 00:00:00 +0200",16
"Sat, 14 May 2016 00:00:00 +0200",8
"Sun, 15 May 2016 00:00:00 +0200",9
"Mon, 16 May 2016 00:00:00 +0200",15
"Tue, 17 May 2016 00:00:00 +0200",26
"Wed, 18 May 2016 00:00:00 +0200",21
"Thu, 19 May 2016 00:00:00 +0200",18
"Fri, 20 May 2016 00:00:00 +0200",17
"Sat, 21 May 2016 00:00:00 +0200",9
"Sun, 22 May 2016 00:00:00 +0200",7
"Mon, 23 May 2016 00:00:00 +0200",24
"Tue, 24 May 2016 00:00:00 +0200",34
"Wed, 25 May 2016 00:00:00 +0200",24
"Thu, 26 May 2016 00:00:00 +0200",23
"Fri, 27 May 2016 00:00:00 +0200",15
"Sat, 28 May 2016 00:00:00 +0200",9
"Sun, 29 May 2016 00:00:00 +0200",8
"Mon, 30 May 2016 00:00:00 +0200",25
"Tue, 31 May 2016 00:00:00 +0200",31
"Wed, 01 Jun 2016 00:00:00 +0200",17
"Thu, 02 Jun 2016 00:00:00 +0200",13
"Fri, 03 Jun 2016 00:00:00 +0200",12
"Sat, 04 Jun 2016 00:00:00 +0200",6
"Sun, 05 Jun 2016 00:00:00 +0200",5
"Mon, 06 Jun 2016 00:00:00 +0200",27
"Tue, 07 Jun 2016 00:00:00 +0200",22
"Wed, 08 Jun 2016 00:00:00 +0200",24
"Thu, 09 Jun 2016 00:00:00 +0200",25
"Fri, 10 Jun 2016 00:00:00 +0200",28
"Sat, 11 Jun 2016 00:00:00 +0200",7
"Sun, 12 Jun 2016 00:00:00 +0200",8
"Mon, 13 Jun 2016 00:00:00 +0200",24
"Tue, 14 Jun 2016 00:00:00 +0200",29
"Wed, 15 Jun 2016 00:00:00 +0200",15
"Thu, 16 Jun 2016 00:00:00 +0200",22
"Fri, 17 Jun 2016 00:00:00 +0200",20
"Sat, 18 Jun 2016 00:00:00 +0200",6
"Sun, 19 Jun 2016 00:00:00 +0200",5
"Mon, 20 Jun 2016 00:00:00 +0200",23
"Tue, 21 Jun 2016 00:00:00 +0200",22
"Wed, 22 Jun 2016 00:00:00 +0200",16
"Thu, 23 Jun 2016 00:00:00 +0200",24
"Fri, 24 Jun 2016 00:00:00 +0200",20
"Sat, 25 Jun 2016 00:00:00 +0200",9
"Sun, 26 Jun 2016 00:00:00 +0200",3
"Mon, 27 Jun 2016 00:00:00 +0200",24
"Tue, 28 Jun 2016 00:00:00 +0200",19
"Wed, 29 Jun 2016 00:00:00 +0200",20
"Thu, 30 Jun 2016 00:00:00 +0200",20
"Fri, 01 Jul 2016 00:00:00 +0200",17
"Sat, 02 Jul 2016 00:00:00 +0200",6
"Sun, 03 Jul 2016 00:00:00 +0200",2
"Mon, 04 Jul 2016 00:00:00 +0200",17
"Tue, 05 Jul 2016 00:00:00 +0200",25
"Wed, 06 Jul 2016 00:00:00 +0200",21
"Thu, 07 Jul 2016 00:00:00 +0200",28
"Fri, 08 Jul 2016 00:00:00 +0200",15
"Sat, 09 Jul 2016 00:00:00 +0200",7
"Sun, 10 Jul 2016 00:00:00 +0200",3
"Mon, 11 Jul 2016 00:00:00 +0200",36
"Tue, 12 Jul 2016 00:00:00 +0200",26
"Wed, 13 Jul 2016 00:00:00 +0200",25
"Thu, 14 Jul 2016 00:00:00 +0200",25
"Fri, 15 Jul 2016 00:00:00 +0200",30
"Sat, 16 Jul 2016 00:00:00 +0200",7
"Sun, 17 Jul 2016 00:00:00 +0200",4
"Mon, 18 Jul 2016 00:00:00 +0200",20
"Tue, 19 Jul 2016 00:00:00 +0200",18
"Wed, 20 Jul 2016 00:00:00 +0200",23
"Thu, 21 Jul 2016 00:00:00 +0200",13
"Fri, 22 Jul 2016 00:00:00 +0200",15
"Sat, 23 Jul 2016 00:00:00 +0200",3
"Sun, 24 Jul 2016 00:00:00 +0200",3
"Mon, 25 Jul 2016 00:00:00 +0200",20
"Tue, 26 Jul 2016 00:00:00 +0200",13
"Wed, 27 Jul 2016 00:00:00 +0200",27
"Thu, 28 Jul 2016 00:00:00 +0200",25
"Fri, 29 Jul 2016 00:00:00 +0200",21
"Sat, 30 Jul 2016 00:00:00 +0200",7
"Sun, 31 Jul 2016 00:00:00 +0200",2
"Mon, 01 Aug 2016 00:00:00 +0200",24
"Tue, 02 Aug 2016 00:00:00 +0200",26
"Wed, 03 Aug 2016 00:00:00 +0200",20
"Thu, 04 Aug 2016 00:00:00 +0200",22
"Fri, 05 Aug 2016 00:00:00 +0200",18
"Sat, 06 Aug 2016 00:00:00 +0200",8
"Sun, 07 Aug 2016 00:00:00 +0200",4
"Mon, 08 Aug 2016 00:00:00 +0200",14
"Tue, 09 Aug 2016 00:00:00 +0200",19
"Wed, 10 Aug 2016 00:00:00 +0200",17
"Thu, 11 Aug 2016 00:00:00 +0200",21
"Fri, 12 Aug 2016 00:00:00 +0200",22
"Sat, 13 Aug 2016 00:00:00 +0200",3
"Sun, 14 Aug 2016 00:00:00 +0200",3
"Mon, 15 Aug 2016 00:00:00 +0200",3
"Tue, 16 Aug 2016 00:00:00 +0200",11
"Wed, 17 Aug 2016 00:00:00 +0200",8
"Thu, 18 Aug 2016 00:00:00 +0200",12
"Fri, 19 Aug 2016 00:00:00 +0200",9
"Sat, 20 Aug 2016 00:00:00 +0200",8
"Sun, 21 Aug 2016 00:00:00 +0200",5
"Mon, 22 Aug 2016 00:00:00 +0200",21
"Tue, 23 Aug 2016 00:00:00 +0200",23
"Wed, 24 Aug 2016 00:00:00 +0200",26
"Thu, 25 Aug 2016 00:00:00 +0200",35
"Fri, 26 Aug 2016 00:00:00 +0200",12
"Sat, 27 Aug 2016 00:00:00 +0200",7
"Sun, 28 Aug 2016 00:00:00 +0200",3
"Mon, 29 Aug 2016 00:00:00 +0200",19
"Tue, 30 Aug 2016 00:00:00 +0200",20
"Wed, 31 Aug 2016 00:00:00 +0200",23
"Thu, 01 Sep 2016 00:00:00 +0200",22
"Fri, 02 Sep 2016 00:00:00 +0200",23
"Sat, 03 Sep 2016 00:00:00 +0200",6
"Sun, 04 Sep 2016 00:00:00 +0200",6
"Mon, 05 Sep 2016 00:00:00 +0200",28
"Tue, 06 Sep 2016 00:00:00 +0200",26
"Wed, 07 Sep 2016 00:00:00 +0200",21
"Thu, 08 Sep 2016 00:00:00 +0200",19
"Fri, 09 Sep 2016 00:00:00 +0200",20
"Sat, 10 Sep 2016 00:00:00 +0200",9
"Sun, 11 Sep 2016 00:00:00 +0200",5
"Mon, 12 Sep 2016 00:00:00 +0200",26
"Tue, 13 Sep 2016 00:00:00 +0200",27
"Wed, 14 Sep 2016 00:00:00 +0200",23
"Thu, 15 Sep 2016 00:00:00 +0200",29
"Fri, 16 Sep 2016 00:00:00 +0200",32
"Sat, 17 Sep 2016 00:00:00 +0200",8
"Sun, 18 Sep 2016 00:00:00 +0200",8
"Mon, 19 Sep 2016 00:00:00 +0200",21
"Tue, 20 Sep 2016 00:00:00 +0200",19
"Wed, 21 Sep 2016 00:00:00 +0200",21
"Thu, 22 Sep 2016 00:00:00 +0200",19
"Fri, 23 Sep 2016 00:00:00 +0200",19
"Sat, 24 Sep 2016 00:00:00 +0200",5
"Sun, 25 Sep 2016 00:00:00 +0200",4
"Mon, 26 Sep 2016 00:00:00 +0200",24
"Tue, 27 Sep 2016 00:00:00 +0200",28
"Wed, 28 Sep 2016 00:00:00 +0200",30
"Thu, 29 Sep 2016 00:00:00 +0200",29
"Fri, 30 Sep 2016 00:00:00 +0200",30
"Sat, 01 Oct 2016 00:00:00 +0200",13
"Sun, 02 Oct 2016 00:00:00 +0200",4
"Mon, 03 Oct 2016 00:00:00 +0200",30
"Tue, 04 Oct 2016 00:00:00 +0200",20
"Wed, 05 Oct 2016 00:00:00 +0200",23
"Thu, 06 Oct 2016 00:00:00 +0200",33
"Fri, 07 Oct 2016 00:00:00 +0200",25
"Sat, 08 Oct 2016 00:00:00 +0200",11
"Sun, 09 Oct 2016 00:00:00 +0200",7
"Mon, 10 Oct 2016 00:00:00 +0200",36
"Tue, 11 Oct 2016 00:00:00 +0200",32
"Wed, 12 Oct 2016 00:00:00 +0200",36
"Thu, 13 Oct 2016 00:00:00 +0200",34
"Fri, 14 Oct 2016 00:00:00 +0200",28
"Sat, 15 Oct 2016 00:00:00 +0200",13
"Sun, 16 Oct 2016 00:00:00 +0200",3
"Mon, 17 Oct 2016 00:00:00 +0200",31
"Tue, 18 Oct 2016 00:00:00 +0200",41
"Wed, 19 Oct 2016 00:00:00 +0200",52
"Thu, 20 Oct 2016 00:00:00 +0200",73
"Fri, 21 Oct 2016 00:00:00 +0200",67
"Sat, 22 Oct 2016 00:00:00 +0200",19
"Sun, 23 Oct 2016 00:00:00 +0200",12
"Mon, 24 Oct 2016 00:00:00 +0200",53
"Tue, 25 Oct 2016 00:00:00 +0200",53
"Wed, 26 Oct 2016 00:00:00 +0200",47
"Thu, 27 Oct 2016 00:00:00 +0200",60
"Fri, 28 Oct 2016 00:00:00 +0200",43
"Sat, 29 Oct 2016 00:00:00 +0200",8
"Sun, 30 Oct 2016 00:00:00 +0200",10
"Mon, 31 Oct 2016 00:00:00 +0100",20
"Tue, 01 Nov 2016 00:00:00 +0100",9
"Wed, 02 Nov 2016 00:00:00 +0100",42
"Thu, 03 Nov 2016 00:00:00 +0100",56
"Fri, 04 Nov 2016 00:00:00 +0100",41
"Sat, 05 Nov 2016 00:00:00 +0100",22
"Sun, 06 Nov 2016 00:00:00 +0100",7
"Mon, 07 Nov 2016 00:00:00 +0100",52
"Tue, 08 Nov 2016 00:00:00 +0100",51
"Wed, 09 Nov 2016 00:00:00 +0100",40
"Thu, 10 Nov 2016 00:00:00 +0100",55
"Fri, 11 Nov 2016 00:00:00 +0100",48
"Sat, 12 Nov 2016 00:00:00 +0100",9
"Sun, 13 Nov 2016 00:00:00 +0100",7
"Mon, 14 Nov 2016 00:00:00 +0100",57
"Tue, 15 Nov 2016 00:00:00 +0100",48
"Wed, 16 Nov 2016 00:00:00 +0100",52
"Thu, 17 Nov 2016 00:00:00 +0100",55
"Fri, 18 Nov 2016 00:00:00 +0100",46
"Sat, 19 Nov 2016 00:00:00 +0100",16
"Sun, 20 Nov 2016 00:00:00 +0100",9
"Mon, 21 Nov 2016 00:00:00 +0100",44
"Tue, 22 Nov 2016 00:00:00 +0100",38
"Wed, 23 Nov 2016 00:00:00 +0100",46
"Thu, 24 Nov 2016 00:00:00 +0100",60
"Fri, 25 Nov 2016 00:00:00 +0100",36
"Sat, 26 Nov 2016 00:00:00 +0100",19
"Sun, 27 Nov 2016 00:00:00 +0100",12
"Mon, 28 Nov 2016 00:00:00 +0100",55
"Tue, 29 Nov 2016 00:00:00 +0100",46
"Wed, 30 Nov 2016 00:00:00 +0100",61
"Thu, 01 Dec 2016 00:00:00 +0100",47
"Fri, 02 Dec 2016 00:00:00 +0100",57
"Sat, 03 Dec 2016 00:00:00 +0100",16
"Sun, 04 Dec 2016 00:00:00 +0100",14
"Mon, 05 Dec 2016 00:00:00 +0100",47
"Tue, 06 Dec 2016 00:00:00 +0100",52
"Wed, 07 Dec 2016 00:00:00 +0100",55
"Thu, 08 Dec 2016 00:00:00 +0100",8
"Fri, 09 Dec 2016 00:00:00 +0100",36
"Sat, 10 Dec 2016 00:00:00 +0100",18
"Sun, 11 Dec 2016 00:00:00 +0100",10
"Mon, 12 Dec 2016 00:00:00 +0100",54
"Tue, 13 Dec 2016 00:00:00 +0100",53
"Wed, 14 Dec 2016 00:00:00 +0100",58
"Thu, 15 Dec 2016 00:00:00 +0100",59
"Fri, 16 Dec 2016 00:00:00 +0100",53
"Sat, 17 Dec 2016 00:00:00 +0100",19
"Sun, 18 Dec 2016 00:00:00 +0100",15
"Mon, 19 Dec 2016 00:00:00 +0100",56
"Tue, 20 Dec 2016 00:00:00 +0100",52
"Wed, 21 Dec 2016 00:00:00 +0100",49
"Thu, 22 Dec 2016 00:00:00 +0100",56
"Fri, 23 Dec 2016 00:00:00 +0100",54
"Sat, 24 Dec 2016 00:00:00 +0100",7
"Sun, 25 Dec 2016 00:00:00 +0100",5
"Mon, 26 Dec 2016 00:00:00 +0100",8
"Tue, 27 Dec 2016 00:00:00 +0100",42
"Wed, 28 Dec 2016 00:00:00 +0100",39
"Thu, 29 Dec 2016 00:00:00 +0100",53
"Fri, 30 Dec 2016 00:00:00 +0100",46
"Sat, 31 Dec 2016 00:00:00 +0100",13
"Sun, 01 Jan 2017 00:00:00 +0100",15
"Mon, 02 Jan 2017 00:00:00 +0100",50
"Tue, 03 Jan 2017 00:00:00 +0100",45
"Wed, 04 Jan 2017 00:00:00 +0100",52
"Thu, 05 Jan 2017 00:00:00 +0100",70
"Fri, 06 Jan 2017 00:00:00 +0100",22
"Sat, 07 Jan 2017 00:00:00 +0100",11
"Sun, 08 Jan 2017 00:00:00 +0100",19
"Mon, 09 Jan 2017 00:00:00 +0100",90
"Tue, 10 Jan 2017 00:00:00 +0100",87
"Wed, 11 Jan 2017 00:00:00 +0100",73
"Thu, 12 Jan 2017 00:00:00 +0100",81
"Fri, 13 Jan 2017 00:00:00 +0100",58
"Sat, 14 Jan 2017 00:00:00 +0100",14
"Sun, 15 Jan 2017 00:00:00 +0100",22
"Mon, 16 Jan 2017 00:00:00 +0100",95
"Tue, 17 Jan 2017 00:00:00 +0100",101
"Wed, 18 Jan 2017 00:00:00 +0100",87
"Thu, 19 Jan 2017 00:00:00 +0100",111
"Fri, 20 Jan 2017 00:00:00 +0100",82
"Sat, 21 Jan 2017 00:00:00 +0100",45
"Sun, 22 Jan 2017 00:00:00 +0100",27
"Mon, 23 Jan 2017 00:00:00 +0100",107
"Tue, 24 Jan 2017 00:00:00 +0100",111
"Wed, 25 Jan 2017 00:00:00 +0100",119
"Thu, 26 Jan 2017 00:00:00 +0100",109
"Fri, 27 Jan 2017 00:00:00 +0100",130
"Sat, 28 Jan 2017 00:00:00 +0100",55
"Sun, 29 Jan 2017 00:00:00 +0100",59
"Mon, 30 Jan 2017 00:00:00 +0100",139
"Tue, 31 Jan 2017 00:00:00 +0100",130
"Wed, 01 Feb 2017 00:00:00 +0100",98
"Thu, 02 Feb 2017 00:00:00 +0100",88
"Fri, 03 Feb 2017 00:00:00 +0100",81
"Sat, 04 Feb 2017 00:00:00 +0100",32
"Sun, 05 Feb 2017 00:00:00 +0100",22
"Mon, 06 Feb 2017 00:00:00 +0100",86
"Tue, 07 Feb 2017 00:00:00 +0100",101
"Wed, 08 Feb 2017 00:00:00 +0100",106
"Thu, 09 Feb 2017 00:00:00 +0100",115
"Fri, 10 Feb 2017 00:00:00 +0100",105
"Sat, 11 Feb 2017 00:00:00 +0100",28
"Sun, 12 Feb 2017 00:00:00 +0100",25
"Mon, 13 Feb 2017 00:00:00 +0100",85
"Tue, 14 Feb 2017 00:00:00 +0100",79
"Wed, 15 Feb 2017 00:00:00 +0100",84
"Thu, 16 Feb 2017 00:00:00 +0100",85
"Fri, 17 Feb 2017 00:00:00 +0100",87
"Sat, 18 Feb 2017 00:00:00 +0100",27
"Sun, 19 Feb 2017 00:00:00 +0100",22
"Mon, 20 Feb 2017 00:00:00 +0100",96
"Tue, 21 Feb 2017 00:00:00 +0100",107
"Wed, 22 Feb 2017 00:00:00 +0100",87
"Thu, 23 Feb 2017 00:00:00 +0100",94
"Fri, 24 Feb 2017 00:00:00 +0100",92
"Sat, 25 Feb 2017 00:00:00 +0100",31
"Sun, 26 Feb 2017 00:00:00 +0100",28
"Mon, 27 Feb 2017 00:00:00 +0100",82
"Tue, 28 Feb 2017 00:00:00 +0100",118
"Wed, 01 Mar 2017 00:00:00 +0100",102
"Thu, 02 Mar 2017 00:00:00 +0100",87
"Fri, 03 Mar 2017 00:00:00 +0100",79
"Sat, 04 Mar 2017 00:00:00 +0100",32
"Sun, 05 Mar 2017 00:00:00 +0100",26
"Mon, 06 Mar 2017 00:00:00 +0100",84
"Tue, 07 Mar 2017 00:00:00 +0100",108
"Wed, 08 Mar 2017 00:00:00 +0100",111
"Thu, 09 Mar 2017 00:00:00 +0100",90
"Fri, 10 Mar 2017 00:00:00 +0100",89
"Sat, 11 Mar 2017 00:00:00 +0100",29
"Sun, 12 Mar 2017 00:00:00 +0100",16
"Mon, 13 Mar 2017 00:00:00 +0100",107
"Tue, 14 Mar 2017 00:00:00 +0100",104
"Wed, 15 Mar 2017 00:00:00 +0100",95
"Thu, 16 Mar 2017 00:00:00 +0100",100
"Fri, 17 Mar 2017 00:00:00 +0100",90
"Sat, 18 Mar 2017 00:00:00 +0100",22
"Sun, 19 Mar 2017 00:00:00 +0100",17
"Mon, 20 Mar 2017 00:00:00 +0100",81
"Tue, 21 Mar 2017 00:00:00 +0100",89
"Wed, 22 Mar 2017 00:00:00 +0100",79
"Thu, 23 Mar 2017 00:00:00 +0100",82
"Fri, 24 Mar 2017 00:00:00 +0100",47
"Sat, 25 Mar 2017 00:00:03 +0100", 74
"Sat, 25 Mar 2017 06:00:03 +0100", 76
"Sat, 25 Mar 2017 12:00:03 +0100", 54
"Sat, 25 Mar 2017 18:00:03 +0100", 33
"Sun, 26 Mar 2017 06:00:03 +0200", 23
"Sun, 26 Mar 2017 12:00:03 +0200", 15
"Mon, 27 Mar 2017 00:00:04 +0200", 15
"Mon, 27 Mar 2017 12:00:04 +0200", 45
"Mon, 27 Mar 2017 18:00:04 +0200", 72
"Tue, 28 Mar 2017 12:00:03 +0200", 84
"Wed, 29 Mar 2017 00:00:04 +0200", 91
"Wed, 29 Mar 2017 06:00:03 +0200", 90
"Wed, 29 Mar 2017 12:00:04 +0200", 97
"Wed, 29 Mar 2017 18:00:04 +0200", 107
"Thu, 30 Mar 2017 00:00:04 +0200", 110
"Thu, 30 Mar 2017 06:00:04 +0200", 109
"Thu, 30 Mar 2017 12:00:04 +0200", 116
"Fri, 31 Mar 2017 00:00:03 +0200", 94
"Fri, 31 Mar 2017 12:00:03 +0200", 96
"Sat, 01 Apr 2017 00:00:03 +0200", 94
"Sat, 01 Apr 2017 12:00:03 +0200", 67
"Sat, 01 Apr 2017 18:00:03 +0200", 34
"Sun, 02 Apr 2017 00:00:03 +0200", 20
"Sun, 02 Apr 2017 06:00:03 +0200", 21
"Sun, 02 Apr 2017 18:00:03 +0200", 22
"Mon, 03 Apr 2017 00:00:03 +0200", 29
"Mon, 03 Apr 2017 06:00:03 +0200", 30
"Mon, 03 Apr 2017 18:00:04 +0200", 95
"Tue, 04 Apr 2017 06:00:03 +0200", 108
"Tue, 04 Apr 2017 18:00:04 +0200", 109
"Wed, 05 Apr 2017 00:00:04 +0200", 104
"Wed, 05 Apr 2017 12:00:04 +0200", 97
"Wed, 05 Apr 2017 18:00:04 +0200", 104
"Thu, 06 Apr 2017 00:00:03 +0200", 105
"Thu, 06 Apr 2017 06:00:04 +0200", 103
"Thu, 06 Apr 2017 12:00:03 +0200", 106
"Thu, 06 Apr 2017 18:00:03 +0200", 98
"Fri, 07 Apr 2017 06:00:04 +0200", 98
"Sat, 08 Apr 2017 00:00:03 +0200", 97
"Sat, 08 Apr 2017 06:00:03 +0200", 97
"Sat, 08 Apr 2017 12:00:04 +0200", 74
"Sun, 09 Apr 2017 00:00:03 +0200", 22
"Mon, 10 Apr 2017 12:00:03 +0200", 45
"Mon, 10 Apr 2017 18:00:02 +0200", 77
"Tue, 11 Apr 2017 06:00:04 +0200", 86
"Tue, 11 Apr 2017 12:00:04 +0200", 90
"Tue, 11 Apr 2017 18:00:04 +0200", 101
"Wed, 12 Apr 2017 00:00:03 +0200", 91
"Thu, 13 Apr 2017 00:00:04 +0200", 99
"Thu, 13 Apr 2017 06:00:03 +0200", 99
"Thu, 13 Apr 2017 12:00:03 +0200", 99
"Fri, 14 Apr 2017 12:00:04 +0200", 69
"Fri, 14 Apr 2017 18:00:04 +0200", 75
"Sat, 15 Apr 2017 00:00:04 +0200", 68
"Sat, 15 Apr 2017 12:00:03 +0200", 52
"Sat, 15 Apr 2017 18:00:03 +0200", 24
"Sun, 16 Apr 2017 06:00:03 +0200", 21
"Sun, 16 Apr 2017 12:00:03 +0200", 20
"Sun, 16 Apr 2017 18:00:03 +0200", 12
"Mon, 17 Apr 2017 00:00:03 +0200", 15
"Mon, 17 Apr 2017 06:00:03 +0200", 13
"Mon, 17 Apr 2017 12:00:04 +0200", 11
"Mon, 17 Apr 2017 18:00:03 +0200", 16
"Tue, 18 Apr 2017 06:00:04 +0200", 20
"Wed, 19 Apr 2017 00:00:03 +0200", 80
"Wed, 19 Apr 2017 06:00:03 +0200", 79
"Wed, 19 Apr 2017 12:00:03 +0200", 83
"Wed, 19 Apr 2017 18:00:03 +0200", 106
"Thu, 20 Apr 2017 00:00:03 +0200", 109
"Thu, 20 Apr 2017 06:00:03 +0200", 113
"Thu, 20 Apr 2017 12:00:04 +0200", 116
"Fri, 21 Apr 2017 12:00:03 +0200", 95
"Fri, 21 Apr 2017 18:00:03 +0200", 101
"Sat, 22 Apr 2017 00:00:04 +0200", 104
"Sat, 22 Apr 2017 12:00:03 +0200", 87
"Sat, 22 Apr 2017 18:00:02 +0200", 38
"Sun, 23 Apr 2017 06:00:03 +0200", 27
"Mon, 24 Apr 2017 00:00:03 +0200", 21
"Mon, 24 Apr 2017 06:00:03 +0200", 19
"Mon, 24 Apr 2017 12:00:03 +0200", 37
"Tue, 25 Apr 2017 00:00:03 +0200", 66
"Tue, 25 Apr 2017 18:00:03 +0200", 30
"Wed, 26 Apr 2017 00:00:03 +0200", 22
"Wed, 26 Apr 2017 06:00:03 +0200", 22
"Wed, 26 Apr 2017 18:00:03 +0200", 88
"Thu, 27 Apr 2017 00:00:04 +0200", 104
"Thu, 27 Apr 2017 06:00:03 +0200", 106
"Thu, 27 Apr 2017 12:00:03 +0200", 106
"Thu, 27 Apr 2017 18:00:03 +0200", 112
"Fri, 28 Apr 2017 06:00:04 +0200", 110
"Fri, 28 Apr 2017 12:00:03 +0200", 106
"Fri, 28 Apr 2017 18:00:03 +0200", 92
"Sat, 29 Apr 2017 00:00:03 +0200", 91
"Sat, 29 Apr 2017 06:00:02 +0200", 90
"Sat, 29 Apr 2017 12:00:04 +0200", 74
"Sat, 29 Apr 2017 18:00:04 +0200", 43
"Sun, 30 Apr 2017 00:00:03 +0200", 29
"Sun, 30 Apr 2017 12:00:04 +0200", 22
"Mon, 01 May 2017 00:00:04 +0200", 17
"Mon, 01 May 2017 06:00:04 +0200", 19
"Mon, 01 May 2017 12:00:03 +0200", 20
"Mon, 01 May 2017 18:00:03 +0200", 30
"Tue, 02 May 2017 06:00:04 +0200", 34
"Tue, 02 May 2017 12:00:04 +0200", 76
"Wed, 03 May 2017 06:00:03 +0200", 115
"Wed, 03 May 2017 12:00:04 +0200", 110
"Wed, 03 May 2017 18:00:04 +0200", 107
"Thu, 04 May 2017 00:00:03 +0200", 104
"Thu, 04 May 2017 06:00:03 +0200", 103
"Thu, 04 May 2017 12:00:03 +0200", 102
"Fri, 05 May 2017 00:00:03 +0200", 99
"Fri, 05 May 2017 06:00:04 +0200", 99
"Fri, 05 May 2017 12:00:03 +0200", 111
"Fri, 05 May 2017 18:00:03 +0200", 114
"Sat, 06 May 2017 00:00:04 +0200", 105
"Sat, 06 May 2017 06:00:04 +0200", 106
"Sat, 06 May 2017 12:00:04 +0200", 82
"Sat, 06 May 2017 18:00:03 +0200", 43
"Sun, 07 May 2017 00:00:03 +0200", 36
"Sun, 07 May 2017 06:00:04 +0200", 36
"Sun, 07 May 2017 18:00:03 +0200", 29
"Mon, 08 May 2017 00:00:03 +0200", 26
"Mon, 08 May 2017 06:00:03 +0200", 26
"Mon, 08 May 2017 12:00:04 +0200", 61
"Tue, 09 May 2017 00:00:03 +0200", 137
"Tue, 09 May 2017 06:00:03 +0200", 137
"Wed, 10 May 2017 00:00:03 +0200", 129
"Wed, 10 May 2017 12:00:03 +0200", 134
"Wed, 10 May 2017 18:00:04 +0200", 129
"Thu, 11 May 2017 00:00:04 +0200", 126
"Thu, 11 May 2017 06:00:04 +0200", 127
"Thu, 11 May 2017 12:00:04 +0200", 133
"Thu, 11 May 2017 18:00:04 +0200", 138
"Fri, 12 May 2017 00:00:03 +0200", 136
"Fri, 12 May 2017 12:00:04 +0200", 135
"Fri, 12 May 2017 18:00:03 +0200", 118
"Sat, 13 May 2017 00:00:03 +0200", 114
"Sat, 13 May 2017 06:00:04 +0200", 114
"Sat, 13 May 2017 12:00:03 +0200", 86
"Sun, 14 May 2017 00:00:03 +0200", 46
"Sun, 14 May 2017 06:00:03 +0200", 46
"Sun, 14 May 2017 12:00:04 +0200", 35
"Mon, 15 May 2017 00:00:04 +0200", 20
"Mon, 15 May 2017 12:00:04 +0200", 69
"Tue, 16 May 2017 06:00:03 +0200", 137
"Tue, 16 May 2017 12:00:04 +0200", 145
"Tue, 16 May 2017 18:00:04 +0200", 143
"Wed, 17 May 2017 12:00:03 +0200", 127
"Wed, 17 May 2017 18:00:03 +0200", 118
"Thu, 18 May 2017 06:00:03 +0200", 115
"Thu, 18 May 2017 12:00:03 +0200", 118
"Thu, 18 May 2017 18:00:04 +0200", 118
"Fri, 19 May 2017 00:00:03 +0200", 117
"Fri, 19 May 2017 06:00:04 +0200", 116
"Fri, 19 May 2017 12:00:03 +0200", 102
"Sat, 20 May 2017 00:00:03 +0200", 108
"Sat, 20 May 2017 06:00:04 +0200", 108
"Sat, 20 May 2017 12:00:03 +0200", 90
"Sat, 20 May 2017 18:00:03 +0200", 43
"Sun, 21 May 2017 00:00:04 +0200", 28
"Sun, 21 May 2017 06:00:04 +0200", 27
"Sun, 21 May 2017 12:00:04 +0200", 24
"Mon, 22 May 2017 00:00:03 +0200", 29
"Mon, 22 May 2017 06:00:03 +0200", 31
"Mon, 22 May 2017 12:00:04 +0200", 78
"Mon, 22 May 2017 18:00:03 +0200", 128
"Tue, 23 May 2017 00:00:03 +0200", 135
"Tue, 23 May 2017 12:00:04 +0200", 131
"Tue, 23 May 2017 18:00:04 +0200", 139
"Wed, 24 May 2017 00:00:04 +0200", 150
"Wed, 24 May 2017 06:00:03 +0200", 153
"Wed, 24 May 2017 12:00:04 +0200", 147
"Wed, 24 May 2017 18:00:03 +0200", 146
"Thu, 25 May 2017 06:00:03 +0200", 137
"Thu, 25 May 2017 18:00:04 +0200", 135
"Fri, 26 May 2017 00:00:04 +0200", 135
"Fri, 26 May 2017 06:00:04 +0200", 133
"Fri, 26 May 2017 12:00:03 +0200", 143
"Sat, 27 May 2017 00:00:03 +0200", 119
"Sat, 27 May 2017 12:00:04 +0200", 86
"Sun, 28 May 2017 06:00:04 +0200", 42
"Sun, 28 May 2017 12:00:03 +0200", 36
"Mon, 29 May 2017 00:00:04 +0200", 24
"Mon, 29 May 2017 12:00:04 +0200", 67
"Tue, 30 May 2017 00:00:03 +0200", 132
"Tue, 30 May 2017 06:00:03 +0200", 133
"Tue, 30 May 2017 12:00:03 +0200", 148
"Wed, 31 May 2017 12:00:03 +0200", 161
"Thu, 01 Jun 2017 00:00:03 +0200", 162
"Thu, 01 Jun 2017 06:00:03 +0200", 159
"Thu, 01 Jun 2017 12:00:03 +0200", 145
"Thu, 01 Jun 2017 18:00:03 +0200", 137
"Fri, 02 Jun 2017 00:00:04 +0200", 128
"Fri, 02 Jun 2017 06:00:02 +0200", 128
"Sat, 03 Jun 2017 18:00:03 +0200", 24
"Sun, 04 Jun 2017 06:00:03 +0200", 26
"Sun, 04 Jun 2017 12:00:04 +0200", 25
"Sun, 04 Jun 2017 18:00:04 +0200", 29
"Mon, 05 Jun 2017 00:00:04 +0200", 29
"Mon, 05 Jun 2017 06:00:03 +0200", 31
"Mon, 05 Jun 2017 12:00:05 +0200", 76
"Tue, 06 Jun 2017 00:00:03 +0200", 147
"Tue, 06 Jun 2017 06:00:03 +0200", 148
"Tue, 06 Jun 2017 12:00:10 +0200", 148
"Wed, 07 Jun 2017 00:00:03 +0200", 167
"Wed, 07 Jun 2017 12:00:04 +0200", 157
"Wed, 07 Jun 2017 18:00:03 +0200", 156
"Thu, 08 Jun 2017 00:00:04 +0200", 166
"Thu, 08 Jun 2017 06:00:04 +0200", 168
"Thu, 08 Jun 2017 18:00:04 +0200", 180
"Fri, 09 Jun 2017 00:00:03 +0200", 154
"Fri, 09 Jun 2017 18:00:04 +0200", 116
"Sat, 10 Jun 2017 00:00:04 +0200", 101
"Sat, 10 Jun 2017 06:00:03 +0200", 100
"Sat, 10 Jun 2017 12:00:04 +0200", 84
"Sat, 10 Jun 2017 18:00:04 +0200", 46
"Mon, 12 Jun 2017 00:00:04 +0200", 24
"Tue, 13 Jun 2017 00:00:03 +0200", 124
"Tue, 13 Jun 2017 06:00:03 +0200", 124
"Tue, 13 Jun 2017 12:00:04 +0200", 126
"Tue, 13 Jun 2017 18:00:03 +0200", 119
"Wed, 14 Jun 2017 00:00:04 +0200", 108
"Wed, 14 Jun 2017 12:01:19 +0200", 101
"Thu, 15 Jun 2017 00:00:04 +0200", 107
"Thu, 15 Jun 2017 06:00:03 +0200", 107
"Fri, 16 Jun 2017 18:00:04 +0200", 107
"Sat, 17 Jun 2017 06:00:03 +0200", 89
"Sat, 17 Jun 2017 12:00:04 +0200", 73
"Sun, 18 Jun 2017 12:00:03 +0200", 23
"Sun, 18 Jun 2017 18:00:03 +0200", 17
"Mon, 19 Jun 2017 06:00:03 +0200", 21
"Mon, 19 Jun 2017 12:00:04 +0200", 60
"Mon, 19 Jun 2017 18:00:03 +0200", 99
"Tue, 20 Jun 2017 00:00:04 +0200", 103
"Tue, 20 Jun 2017 06:00:04 +0200", 103
"Wed, 21 Jun 2017 06:00:04 +0200", 112
"Wed, 21 Jun 2017 12:00:04 +0200", 105
"Wed, 21 Jun 2017 18:00:04 +0200", 97
"Thu, 22 Jun 2017 12:00:04 +0200", 95
"Thu, 22 Jun 2017 18:00:03 +0200", 104
"Fri, 23 Jun 2017 00:00:04 +0200", 114
"Fri, 23 Jun 2017 06:00:03 +0200", 114
"Fri, 23 Jun 2017 18:00:04 +0200", 101
"Sat, 24 Jun 2017 18:00:03 +0200", 43
"Sun, 25 Jun 2017 06:00:04 +0200", 33
"Sun, 25 Jun 2017 12:00:04 +0200", 25
"Sun, 25 Jun 2017 18:00:03 +0200", 21
"Mon, 26 Jun 2017 00:00:04 +0200", 18
"Mon, 26 Jun 2017 06:00:04 +0200", 19
"Mon, 26 Jun 2017 12:00:04 +0200", 55
"Mon, 26 Jun 2017 18:00:04 +0200", 87
"Tue, 27 Jun 2017 00:00:02 +0200", 96
"Tue, 27 Jun 2017 12:00:04 +0200", 101
"Tue, 27 Jun 2017 18:00:04 +0200", 98
"Wed, 28 Jun 2017 06:00:04 +0200", 93
"Wed, 28 Jun 2017 12:00:04 +0200", 95
"Thu, 29 Jun 2017 06:00:04 +0200", 113
"Thu, 29 Jun 2017 18:00:03 +0200", 96
"Fri, 30 Jun 2017 00:00:04 +0200", 98
"Fri, 30 Jun 2017 06:00:04 +0200", 97
"Fri, 30 Jun 2017 18:00:03 +0200", 99
"Sat, 01 Jul 2017 06:00:04 +0200", 95
"Sat, 01 Jul 2017 12:00:04 +0200", 58